K9BM Weather Reports


Display with metric or nautical units.
time (UTC)temp
F
wind
direction
speed
MPH
gust
MPH
rain 1hr
in
rain 24hr
in
rain mn
in
humidity
%
barometer
mb
20260901193004 72 263 10.0 14.0 0.00 0.00 0.00 44 1006.4
20260901192505 72 273 8.0 15.0 0.00 0.00 0.00 45 1006.5
20260901192005 71 279 10.0 15.0 0.00 0.00 0.00 45 1006.6
20260901191505 71 273 10.0 15.0 0.00 0.00 0.00 46 1006.6
20260901191005 71 281 10.0 14.0 0.00 0.00 0.00 45 1006.8
20260901185505 70 271 11.0 15.0 0.00 0.00 0.00 46 1007.1
20260901184505 70 271 12.0 16.0 0.00 0.00 0.00 46 1007.1
20260901184005 70 283 10.0 16.0 0.00 0.00 0.00 45 1007.2
20260901183504 71 281 12.0 17.0 0.00 0.00 0.00 44 1007.3
20260901183005 71 272 9.0 20.0 0.00 0.00 0.00 43 1007.2
20260901182504 71 276 13.0 20.0 0.00 0.00 0.00 42 1007.2
20260901182004 71 282 12.0 20.0 0.00 0.00 0.00 43 1007.3
20260901181504 71 283 12.0 20.0 0.00 0.00 0.00 43 1007.3
20260901180005 71 285 13.0 20.0 0.00 0.00 0.00 44 1007.3
20260901175504 71 277 14.0 22.0 0.00 0.00 0.00 42 1007.4
20260901175004 71 277 16.0 22.0 0.00 0.00 0.00 42 1007.4
20260901174504 71 278 12.0 20.0 0.00 0.00 0.00 44 1007.5
20260901174007 70 272 13.0 20.0 0.00 0.00 0.00 44 1007.5
20260901173504 69 273 14.0 20.0 0.00 0.00 0.00 46 1007.5
20260901173005 69 270 14.0 18.0 0.00 0.00 0.00 48 1007.5
20260901172505 68 278 12.0 18.0 0.00 0.00 0.00 48 1007.6
20260901172005 68 268 12.0 20.0 0.00 0.00 0.00 49 1007.6
20260901171505 67 257 13.0 20.0 0.00 0.00 0.00 49 1007.6
20260901171004 67 255 13.0 20.0 0.00 0.00 0.00 50 1007.7
20260901170005 66 257 13.0 20.0 0.00 0.00 0.00 49 1007.7
20260901165504 66 255 12.0 15.0 0.00 0.00 0.00 47 1007.6
20260901165004 66 262 9.0 14.0 0.00 0.00 0.00 45 1007.7
20260901164504 66 243 7.0 12.0 0.00 0.00 0.00 46 1007.7
20260901164004 65 255 9.0 12.0 0.00 0.00 0.00 45 1007.6
20260901163504 66 273 7.0 12.0 0.00 0.00 0.00 44 1007.5
20260901162504 65 245 10.0 14.0 0.00 0.00 0.00 43 1007.4
20260901161505 64 242 10.0 14.0 0.00 0.00 0.00 45 1007.4
20260901161005 64 261 9.0 12.0 0.00 0.00 0.00 42 1007.4
20260901160004 62 253 9.0 15.0 0.00 0.00 0.00 43 1007.4
20260901155005 60 250 11.0 14.0 0.00 0.00 0.00 47 1007.4
20260901154505 58 264 10.0 12.0 0.00 0.00 0.00 50 1007.5
20260901154005 58 275 5.0 8.0 0.00 0.00 0.00 50 1007.6
20260901153004 61 240 3.0 13.0 0.00 0.00 0.00 53 1007.9
20260901151504 61 275 9.0 13.0 0.00 0.00 0.00 49 1007.3
20260901151004 61 274 6.0 9.0 0.00 0.00 0.00 44 1007.5
20260901150005 61 247 6.0 10.0 0.00 0.00 0.00 44 1007.8
20260901145505 60 248 7.0 10.0 0.00 0.00 0.00 44 1008.0
20260901145004 60 246 7.0 10.0 0.00 0.00 0.00 44 1007.9
20260901144505 59 259 7.0 9.0 0.00 0.00 0.00 45 1007.9
20260901143504 59 244 5.0 6.0 0.00 0.00 0.00 48 1008.1
20260901143004 58 237 5.0 6.0 0.00 0.00 0.00 49 1008.1
20260901142504 58 227 3.0 5.0 0.00 0.00 0.00 49 1008.1
20260901142005 57 226 3.0 6.0 0.00 0.00 0.00 50 1008.0
20260901141504 57 224 5.0 7.0 0.00 0.00 0.00 50 1008.1
20260901141004 57 206 3.0 7.0 0.00 0.00 0.00 51 1008.1
20260901140005 57 200 0.0 0.0 0.00 0.00 0.00 53 1008.1
20260901135511 56 200 0.0 0.0 0.00 0.00 0.00 52 1008.1
20260901134505 56 201 0.0 0.0 0.00 0.00 0.00 53 1008.0
20260901134004 55 200 0.0 0.0 0.00 0.00 0.00 55 1007.9
20260901133004 55 199 0.0 3.0 0.00 0.00 0.00 54 1007.9
20260901132504 54 199 2.0 3.0 0.00 0.00 0.00 55 1007.8
20260901132004 54 199 0.0 1.0 0.00 0.00 0.00 54 1007.8
20260901131504 53 199 0.0 1.0 0.00 0.00 0.00 56 1007.7
20260901131004 52 199 0.0 3.0 0.00 0.00 0.00 58 1007.5
20260901130004 53 199 2.0 7.0 0.00 0.00 0.00 56 1007.5
20260901125504 53 197 5.0 7.0 0.00 0.00 0.00 56 1007.5
20260901125004 54 194 5.0 6.0 0.00 0.00 0.00 54 1007.5
20260901124505 55 200 3.0 5.0 0.00 0.00 0.00 53 1007.5
20260901124005 54 201 0.0 1.0 0.00 0.00 0.00 51 1007.5
20260901123005 52 201 1.0 5.0 0.00 0.00 0.00 55 1007.4
20260901122505 52 201 3.0 5.0 0.00 0.00 0.00 57 1007.5
20260901121505 52 201 3.0 9.0 0.00 0.00 0.00 57 1007.6
20260901121005 52 198 7.0 9.0 0.00 0.00 0.00 57 1007.6
20260901120005 52 197 5.0 6.0 0.00 0.00 0.00 58 1007.5
20260901114504 53 199 2.0 3.0 0.00 0.00 0.00 56 1007.5
20260901114005 52 198 2.0 3.0 0.00 0.00 0.00 56 1007.4
20260901113505 52 198 2.0 3.0 0.00 0.00 0.00 58 1007.5
20260901113004 51 198 2.0 5.0 0.00 0.00 0.00 59 1007.5
20260901112504 51 198 2.0 6.0 0.00 0.00 0.00 59 1007.6
20260901112004 51 197 5.0 6.0 0.00 0.00 0.00 59 1007.7
20260901111504 51 199 5.0 6.0 0.00 0.00 0.00 59 1007.8
20260901111004 51 198 5.0 7.0 0.00 0.00 0.00 59 1007.8
20260901105504 51 198 4.0 6.0 0.00 0.00 0.00 59 1007.9
20260901105004 52 197 4.0 6.0 0.00 0.00 0.00 58 1007.9
20260901104504 52 211 3.0 3.0 0.00 0.00 0.00 57 1007.8
20260901104004 53 216 3.0 3.0 0.00 0.00 0.00 55 1007.9
20260901103504 53 270 2.0 3.0 0.00 0.00 0.00 54 1007.9
20260901103005 54 270 1.0 3.0 0.00 0.00 0.00 54 1008.0
20260901102505 54 270 1.0 3.0 0.00 0.00 0.00 54 1008.0
20260901102004 54 270 2.0 3.0 0.00 0.00 0.00 54 1008.1
20260901100004 52 270 1.0 3.0 0.00 0.00 0.00 56 1008.1
20260901095505 53 270 2.0 3.0 0.00 0.00 0.00 54 1008.1
20260901094504 53 273 3.0 6.0 0.00 0.00 0.00 55 1008.1
20260901094005 53 282 0.0 0.0 0.00 0.00 0.00 55 1008.2
20260901093504 53 297 0.0 0.0 0.00 0.00 0.00 54 1008.3
20260901093005 53 298 0.0 0.0 0.00 0.00 0.00 53 1008.1
20260901092504 54 354 0.0 0.0 0.00 0.00 0.00 52 1008.1
20260901092004 55 353 0.0 0.0 0.00 0.00 0.00 53 1008.1
20260901091504 54 359 0.0 0.0 0.00 0.00 0.00 53 1008.1
20260901091005 54 359 0.0 0.0 0.00 0.00 0.00 55 1008.1
20260901090004 53 359 0.0 0.0 0.00 0.00 0.00 55 1008.1
20260901085505 54 359 0.0 0.0 0.00 0.00 0.00 55 1008.1
20260901085004 54 359 0.0 0.0 0.00 0.00 0.00 55 1008.2
20260901084005 55 359 0.0 0.0 0.00 0.00 0.00 54 1008.1
20260901083505 55 359 0.0 1.0 0.00 0.00 0.00 53 1008.1
20260901082504 55 359 1.0 3.0 0.00 0.00 0.00 53 1008.1
20260901082004 55 359 2.0 6.0 0.00 0.00 0.00 53 1008.1
20260901081504 55 6 3.0 7.0 0.00 0.00 0.00 53 1008.1
20260901081004 56 0 5.0 10.0 0.00 0.00 0.00 52 1008.1
20260901080004 56 347 5.0 8.0 0.00 0.00 0.00 51 1008.1
20260901075504 56 14 3.0 8.0 0.00 0.00 0.00 51 1008.1
20260901075004 56 15 4.0 8.0 0.00 0.00 0.00 50 1008.2
20260901074504 57 25 3.0 7.0 0.00 0.00 0.00 50 1008.1
20260901074004 57 13 2.0 5.0 0.00 0.00 0.00 49 1008.1
20260901073505 57 10 2.0 3.0 0.00 0.00 0.00 48 1008.3
20260901073005 57 343 0.0 3.0 0.00 0.00 0.00 48 1008.3
20260901072504 58 343 0.0 3.0 0.00 0.00 0.00 48 1008.4
20260901072005 58 343 3.0 6.0 0.00 0.00 0.00 47 1008.3
20260901071504 58 308 3.0 6.0 0.00 0.00 0.00 46 1008.3
20260901070005 57 198 0.0 0.0 0.00 0.00 0.00 44 1008.4
20260901065504 57 199 0.0 3.0 0.00 0.00 0.00 46 1008.4
20260901064004 57 199 2.0 3.0 0.00 0.00 0.00 45 1008.4
20260901063504 57 198 2.0 3.0 0.00 0.00 0.00 47 1008.4
20260901063004 58 198 2.0 3.0 0.00 0.00 0.00 47 1008.4
20260901062504 57 199 1.0 5.0 0.00 0.00 0.00 46 1008.4
20260901062004 58 198 3.0 5.0 0.00 0.00 0.00 47 1008.5
20260901061007 58 197 5.0 7.0 0.00 0.00 0.00 46 1008.5
20260901060004 58 174 4.0 6.0 0.00 0.00 0.00 46 1008.4
20260901055004 60 89 0.0 0.0 0.00 0.00 0.00 43 1008.3
20260901054505 61 84 0.0 0.0 0.00 0.00 0.00 39 1008.4
20260901053504 62 82 0.0 0.0 0.00 0.00 0.00 36 1008.4
20260901053004 62 82 0.0 0.0 0.00 0.00 0.00 36 1008.5
20260901052505 62 82 0.0 0.0 0.00 0.00 0.00 36 1008.5
20260901052004 63 82 0.0 0.0 0.00 0.00 0.00 35 1008.5
20260901051504 63 82 0.0 0.0 0.00 0.00 0.00 35 1008.6
20260901051004 64 83 0.0 0.0 0.00 0.00 0.00 33 1008.7
20260901050004 64 83 0.0 3.0 0.00 0.00 0.00 31 1008.8
20260901045005 64 83 1.0 5.0 0.00 0.00 0.00 32 1008.9
20260901044506 64 84 0.0 7.0 0.00 0.00 0.00 32 1008.9
20260901044004 64 83 3.0 7.0 0.00 0.00 0.00 32 1008.9
20260901043504 65 54 3.0 5.0 0.00 0.00 0.00 32 1008.9
20260901043004 65 145 2.0 8.0 0.00 0.00 0.00 31 1008.9
20260901042004 66 151 6.0 12.0 0.00 0.00 0.00 30 1008.8
20260901041504 66 157 8.0 12.0 0.00 0.00 0.00 30 1008.7
20260901041004 66 155 8.0 12.0 0.00 0.00 0.00 30 1008.7
20260901035004 66 155 9.0 12.0 0.00 0.00 0.00 30 1008.8
20260901034504 66 156 9.0 12.0 0.00 0.00 0.00 30 1008.8
20260901034004 66 154 9.0 12.0 0.00 0.00 0.00 30 1008.8
20260901033504 67 153 10.0 13.0 0.00 0.00 0.00 30 1008.8
20260901033004 67 153 8.0 13.0 0.00 0.00 0.00 30 1008.8
20260901032504 67 149 9.0 12.0 0.00 0.00 0.00 30 1008.9
20260901032004 67 149 7.0 12.0 0.00 0.00 0.00 30 1008.8
20260901031504 67 151 9.0 12.0 0.00 0.00 0.00 30 1008.8
20260901031004 67 151 7.0 12.0 0.00 0.00 0.00 30 1008.7
20260901030004 67 147 7.0 10.0 0.00 0.00 0.00 30 1008.6
20260901025504 67 148 7.0 10.0 0.00 0.00 0.00 30 1008.7
20260901025005 67 146 7.0 10.0 0.00 0.00 0.00 30 1008.6
20260901024005 67 144 7.0 10.0 0.00 0.00 0.00 31 1008.5
20260901023504 68 140 8.0 12.0 0.00 0.00 0.00 29 1008.3
20260901023005 68 136 8.0 12.0 0.00 0.00 0.00 28 1008.3
20260901022504 69 135 9.0 12.0 0.00 0.00 0.00 28 1008.4
20260901022004 69 135 10.0 12.0 0.00 0.00 0.00 27 1008.4
20260901021504 69 139 9.0 12.0 0.00 0.00 0.00 28 1008.4
20260901021004 69 136 9.0 10.0 0.00 0.00 0.00 28 1008.3
20260901020004 71 130 8.0 10.0 0.00 0.00 0.00 27 1008.2
20260901015504 72 127 8.0 12.0 0.00 0.00 0.00 25 1008.3
20260901015005 73 125 8.0 13.0 0.00 0.00 0.00 25 1008.2
20260901014504 73 123 10.0 13.0 0.00 0.00 0.00 25 1008.4
20260901014004 73 121 9.0 13.0 0.00 0.00 0.00 25 1008.5
20260901013504 74 116 10.0 13.0 0.00 0.00 0.00 25 1008.4
20260901013004 74 112 11.0 13.0 0.00 0.00 0.00 25 1008.3
20260901012504 75 111 10.0 13.0 0.00 0.00 0.00 25 1008.3
20260901012004 75 114 8.0 12.0 0.00 0.00 0.00 25 1008.3
20260901011504 76 114 9.0 13.0 0.00 0.00 0.00 24 1008.3
20260901011004 76 105 9.0 13.0 0.00 0.00 0.00 23 1008.2
20260901010004 77 97 9.0 14.0 0.00 0.00 0.00 22 1008.2
20260901005504 77 96 9.0 14.0 0.00 0.00 0.00 22 1008.2
20260901004504 78 97 9.0 13.0 0.00 0.00 0.00 21 1008.2
20260901003503 79 97 9.0 13.0 0.00 0.00 0.00 20 1008.2
20260901003004 79 96 8.0 12.0 0.00 0.00 0.00 19 1008.2
20260901002503 79 98 7.0 10.0 0.00 0.00 0.00 18 1008.3
20260901001504 79 105 9.0 16.0 0.00 0.00 0.00 18 1008.4
20260901001004 79 76 8.0 12.0 0.00 0.00 0.00 18 1008.4
20260901000004 79 63 4.0 12.0 0.00 0.00 0.00 18 1008.4
20260831235504 79 57 6.0 12.0 0.00 0.00 0.00 18 1008.5
20260831234504 79 69 7.0 13.0 0.00 0.00 0.00 18 1008.6
20260831234004 79 80 5.0 13.0 0.00 0.00 0.00 17 1008.6
20260831233004 80 71 4.0 12.0 0.00 0.00 0.00 17 1008.6
20260831232004 80 60 1.0 3.0 0.00 0.00 0.00 17 1008.7
20260831231004 80 62 3.0 8.0 0.00 0.00 0.00 16 1008.8
20260831230004 81 108 3.0 9.0 0.00 0.00 0.00 16 1008.9
20260831225004 82 136 4.0 9.0 0.00 0.00 0.00 16 1009.0
20260831224504 82 140 5.0 9.0 0.00 0.00 0.00 16 1009.1
20260831223503 81 116 3.0 12.0 0.00 0.00 0.00 16 1009.1
20260831222506 80 166 9.0 14.0 0.00 0.00 0.00 17 1009.1
20260831222006 80 148 7.0 12.0 0.00 0.00 0.00 17 1009.1
20260831221506 79 27 5.0 9.0 0.00 0.00 0.00 18 1009.2
20260831221007 79 12 2.0 8.0 0.00 0.00 0.00 17 1009.3
20260831220006 79 48 2.0 7.0 0.00 0.00 0.00 17 1009.4
20260831215506 79 310 1.0 9.0 0.00 0.00 0.00 16 1009.4
20260831215006 79 285 5.0 9.0 0.00 0.00 0.00 18 1009.6
20260831214506 80 44 4.0 7.0 0.00 0.00 0.00 16 1009.6
20260831214006 79 136 1.0 12.0 0.00 0.00 0.00 17 1009.7
20260831213505 78 136 2.0 13.0 0.00 0.00 0.00 16 1009.8
20260831213006 77 167 7.0 13.0 0.00 0.00 0.00 17 1009.9
20260831212506 77 320 4.0 14.0 0.00 0.00 0.00 18 1010.0
20260831212006 76 233 7.0 14.0 0.00 0.00 0.00 18 1010.1
20260831211506 76 339 9.0 14.0 0.00 0.00 0.00 18 1010.2
20260831211006 76 317 8.0 13.0 0.00 0.00 0.00 18 1010.2
20260831210006 76 347 4.0 14.0 0.00 0.00 0.00 17 1010.4
20260831205506 76 293 9.0 14.0 0.00 0.00 0.00 18 1010.4
20260831205005 76 288 6.0 13.0 0.00 0.00 0.00 18 1010.4
20260831204506 76 246 1.0 12.0 0.00 0.00 0.00 18 1010.5
20260831204006 75 284 3.0 12.0 0.00 0.00 0.00 18 1010.7
20260831203506 76 274 8.0 14.0 0.00 0.00 0.00 18 1010.8
20260831203006 76 285 8.0 15.0 0.00 0.00 0.00 19 1010.8
20260831202506 76 281 9.0 15.0 0.00 0.00 0.00 18 1010.8
20260831202006 76 286 10.0 15.0 0.00 0.00 0.00 18 1010.8
20260831195506 75 271 12.0 17.0 0.00 0.00 0.00 17 1011.1
20260831194505 75 271 8.0 13.0 0.00 0.00 0.00 19 1011.2
20260831193506 74 270 4.0 20.0 0.00 0.00 0.00 18 1011.3